FW8328 Weather Reports


time (UTC)temp
C
wind
direction
speed
KPH
gust
KPH
rain 1hr
cm
rain 24hr
cm
rain mn
cm
humidity
%
barometer
mb
20260504081545 5 0 0.0 6.4 0.00 0.00 0.00 84 1008.6
20260504044546 0 0 0.0 0.0 0.00 0.00 0.00 85 1008.8
20260504043047 0 0 0.0 0.0 0.00 0.00 0.00 83 1009.0
20260504041546 0 0 0.0 0.0 0.00 0.00 0.00 82 1009.0
20260504040100 0 0 0.0 3.2 0.00 0.00 0.00 82 1008.8
20260504034538 1 0 0.0 3.2 0.00 0.00 0.00 81 1008.7
20260504033049 1 0 0.0 0.0 0.00 0.00 0.00 80 1008.7
20260504031555 1 0 0.0 0.0 0.00 0.00 0.00 79 1008.8
20260504030047 1 0 0.0 0.0 0.00 0.00 0.00 78 1008.8
20260504024542 2 0 0.0 0.0 0.00 0.00 0.00 77 1008.9
20260504023043 2 0 0.0 0.0 0.00 0.00 0.00 76 1009.0
20260504021545 2 0 0.0 0.0 0.00 0.00 0.00 74 1009.1
20260504020058 3 0 0.0 0.0 0.00 0.00 0.00 73 1008.9
20260504014545 3 0 0.0 0.0 0.00 0.03 0.00 72 1008.9
20260504013045 4 0 0.0 0.0 0.00 0.03 0.00 71 1008.7
20260504011542 5 0 0.0 0.0 0.00 0.03 0.00 69 1008.6
20260504010050 5 0 0.0 0.0 0.00 0.03 0.00 69 1008.3
20260504004546 6 0 0.0 0.0 0.00 0.05 0.00 66 1008.1
20260504003046 6 0 0.0 0.0 0.00 0.05 0.00 65 1007.9
20260504001550 6 0 0.0 0.0 0.00 0.05 0.00 61 1007.8
20260504000047 7 86 1.6 3.2 0.00 0.05 0.00 61 1007.7
20260503234602 7 0 0.0 4.8 0.00 0.05 0.00 60 1007.6
20260503233050 7 0 1.6 4.8 0.00 0.05 0.00 59 1007.5
20260503231550 8 0 0.0 6.4 0.00 0.05 0.00 58 1007.4
20260503230046 8 78 0.0 3.2 0.00 0.05 0.00 58 1007.3
20260503224541 8 93 0.0 4.8 0.00 0.05 0.00 56 1007.4
20260503223047 8 108 1.6 4.8 0.00 0.05 0.00 54 1007.4
20260503221557 8 0 0.0 6.4 0.00 0.05 0.00 55 1007.4
20260503220049 8 126 0.0 6.4 0.00 0.05 0.00 56 1007.2
20260503214542 9 0 1.6 11.3 0.00 0.15 0.00 52 1007.2
20260503213044 9 71 3.2 11.3 0.00 0.15 0.00 51 1007.3
20260503211545 8 119 3.2 14.5 0.00 0.15 0.00 55 1007.3
20260503210047 8 63 3.2 12.9 0.00 0.15 0.00 53 1007.2
20260503204546 10 67 1.6 9.7 0.00 0.15 0.00 51 1007.0
20260503203054 8 80 3.2 9.7 0.00 0.15 0.00 51 1006.9
20260503201541 9 42 1.6 14.5 0.00 0.15 0.00 50 1006.8
20260503200048 9 53 1.6 11.3 0.00 0.15 0.00 49 1006.8
20260503194556 8 90 1.6 11.3 0.00 0.15 0.00 51 1006.9
20260503193045 8 113 1.6 11.3 0.00 0.15 0.00 50 1007.0
20260503191547 8 269 3.2 14.5 0.00 0.15 0.00 51 1006.9
20260503190043 9 60 3.2 11.3 0.00 0.15 0.00 51 1006.8
20260503184542 8 328 1.6 11.3 0.00 0.18 0.00 52 1007.0
20260503183050 9 103 3.2 16.1 0.00 0.18 0.00 52 1006.9
20260503181547 8 0 3.2 9.7 0.00 0.18 0.00 51 1006.8
20260503180057 9 147 3.2 11.3 0.00 0.18 0.00 53 1006.9
20260503174546 10 106 3.2 12.9 0.00 0.25 0.00 49 1006.7
20260503173046 10 88 1.6 11.3 0.00 0.25 0.00 50 1006.6
20260503171549 9 77 3.2 12.9 0.00 0.25 0.00 54 1006.8